Weather History for K2WX - December, 2013

Change the Weather History Date:

Saturday, December 28, 2013

  Actual Average Record
Temperature  
Mean Temperature 20 °F 20 °F  
Max Temperature 42 °F 30 °F - ()
Min Temperature -2 °F 10 °F - ()
Degree Days  
Heating Degree Days 45 45  
Month to date heating degree days 1402 1228  
Since 1 July heating degree days 3192 3126  
Cooling Degree Days 0 0  
Month to date cooling degree days 0 0  
Year to date cooling degree days 587 513  
Moisture  
Dew Point 8 °F    
Average Humidity 69    
Maximum Humidity 79    
Minimum Humidity 59    
Precipitation  
Precipitation 0.00 in 0.01 in - ()
Month to date precipitation 0.93 0.25  
Year to date precipitation 13.08 14.48  
Sea Level Pressure  
Sea Level Pressure 30.13 in    
Wind  
Wind Speed 25 mph (WNW)    
Max Wind Speed 58 mph    
Max Gust Speed 68 mph    
T = Trace of Precipitation, MM = Missing Value Source: NWS Daily Summary

Daily Weather History Graph

Daily Weather History Graph

Search for Another Location

Airport or City:

Trip Planner

Search our weather history database for the weather conditions in past years. The results will help you decide how hot, cold, wet, or windy it might be!

Date:

Astronomy

Dec. 28, 2013 Rise Set
Actual Time 7:34 AM MST 4:17 PM MST
Civil Twilight 6:59 AM MST 4:52 PM MST
Nautical Twilight 6:22 AM MST 5:29 PM MST
Astronomical Twilight 5:46 AM MST 6:05 PM MST
Moon 3:06 AM MST (12/28) 1:16 PM MST (12/28)
Length of Visible Light 9h 52m
Length of Day
8h 43m
Waning Crescent, 18% of the Moon is Illuminated
Dec 28
Waning Crescent
Jan 1
New
Jan 7
First Quarter
Jan 15
Full
Jan 23
Last Quarter

Hourly Weather History & Observations

Time (MST) Temp. Windchill Dew Point Humidity Pressure Visibility Wind Dir Wind Speed Gust Speed Precip Events Conditions
12:56 AM 36.0 °F 29.0 °F 26.1 °F 67% 29.75 in - SW 9.2 mph - N/A   Unknown
1:56 AM 37.0 °F 30.4 °F 26.1 °F 65% 29.73 in - West 9.2 mph - N/A   Unknown
2:56 AM 36.0 °F 28.5 °F 26.1 °F 67% 29.73 in - West 10.4 mph - N/A   Unknown
3:56 AM 36.0 °F 31.1 °F 26.1 °F 67% 29.72 in - WSW 5.8 mph - N/A   Unknown
4:56 AM 36.0 °F 28.5 °F 26.1 °F 67% 29.73 in - WSW 10.4 mph - N/A   Unknown
5:56 AM 39.0 °F 29.6 °F 27.0 °F 62% 29.76 in - NW 18.4 mph - N/A   Unknown
6:56 AM 39.9 °F 27.8 °F 28.0 °F 63% 29.80 in - NW 33.4 mph 39.1 mph N/A   Unknown
7:56 AM 37.9 °F 25.1 °F 28.9 °F 70% 29.85 in - NW 33.4 mph 42.6 mph N/A   Unknown
8:56 AM 27.0 °F 7.0 °F 18.0 °F 69% 29.92 in - NW 51.8 mph 65.6 mph N/A   Unknown
9:56 AM 18.0 °F -4.9 °F 9.0 °F 68% 30.06 in - NW 46.0 mph 55.2 mph N/A   Unknown
10:56 AM 12.9 °F -11.8 °F 3.9 °F 67% 30.14 in - NW 44.9 mph 58.7 mph N/A   Unknown
11:56 AM 10.9 °F -12.8 °F 1.9 °F 67% 30.21 in - NW 36.8 mph 49.5 mph N/A   Unknown
12:56 PM 8.1 °F -16.8 °F 1.0 °F 73% 30.21 in - NW 36.8 mph 44.9 mph N/A   Unknown
1:56 PM 7.0 °F -19.6 °F -2.9 °F 64% 30.23 in - NW 42.6 mph 52.9 mph N/A   Unknown
2:56 PM 5.0 °F -21.0 °F -4.0 °F 66% 30.30 in - NW 36.8 mph 44.9 mph N/A   Unknown
3:56 PM 3.9 °F -21.2 °F -4.0 °F 70% 30.35 in - NW 32.2 mph 39.1 mph N/A   Unknown
4:56 PM 1.9 °F -22.0 °F -6.0 °F 69% 30.39 in - NW 26.5 mph 35.7 mph N/A   Unknown
5:56 PM 1.9 °F -23.2 °F -5.1 °F 72% 30.41 in - NW 29.9 mph - N/A   Unknown
6:56 PM 1.0 °F -20.4 °F -6.0 °F 72% 30.43 in - NW 19.6 mph - N/A   Unknown
7:56 PM -0.9 °F -21.2 °F -7.1 °F 75% 30.47 in - WNW 16.1 mph - N/A   Unknown
8:56 PM -0.9 °F -19.9 °F -7.1 °F 75% 30.50 in - NW 13.8 mph - N/A   Unknown
9:56 PM -0.0 °F -20.7 °F -6.0 °F 76% 30.51 in - WNW 17.3 mph - N/A   Unknown
10:56 PM -0.0 °F -19.4 °F -6.0 °F 76% 30.51 in - WNW 15.0 mph - N/A   Unknown
11:56 PM -0.9 °F -17.4 °F -7.1 °F 75% 30.50 in - NW 10.4 mph - N/A   Unknown